Date,TemperatureHighF,TemperatureAvgF,TemperatureLowF,DewpointHighF,DewpointAvgF,DewpointLowF,HumidityHigh,HumidityAvg,HumidityLow,PressureMaxIn,PressureMinIn,WindSpeedMaxMPH,WindSpeedAvgMPH,GustSpeedMaxMPH,PrecipitationSumIn
2013-1-1,54,46,35,52,42,31,94,88,72,30.03,29.76,8,2,8,0.05
2013-1-2,45,35,26,34,29,22,86,78,60,30.10,30.00,6,1,6,0.00
2013-1-3,50,36,23,38,28,19,90,75,54,30.20,30.07,8,1,8,0.00
2013-1-4,41,38,33,38,34,29,92,87,71,30.28,30.14,6,1,6,0.31
2013-1-5,66,43,29,53,38,26,94,83,53,30.15,29.99,6,0,6,0.02
2013-1-6,70,43,27,49,30,22,92,66,31,30.16,30.05,10,2,10,0.01
2013-1-7,59,42,24,45,31,20,89,68,42,30.09,29.83,8,2,8,0.00
2013-1-8,50,47,44,48,45,39,94,90,71,29.84,29.66,7,1,7,0.75
2013-1-9,58,54,50,56,52,48,95,94,93,29.80,29.62,13,2,13,1.88
2013-1-10,70,53,38,52,45,34,95,77,46,29.82,29.75,17,3,17,0.00
2013-1-11,78,58,36,62,50,33,93,78,49,29.79,29.60,16,3,16,0.01
2013-1-12,76,64,44,68,58,34,94,83,63,29.71,29.47,13,3,13,0.01
2013-1-13,63,44,33,38,30,23,73,58,34,29.96,29.71,11,2,11,0.00
2013-1-14,54,39,30,32,26,21,70,60,41,30.02,29.85,13,3,13,0.00
2013-1-15,38,35,29,33,30,22,89,82,67,30.00,29.86,9,2,9,0.02
2013-1-16,67,40,23,36,23,17,81,55,25,30.08,29.94,13,2,13,0.00
2013-1-17,80,49,28,44,30,20,78,54,23,30.26,30.04,8,1,8,0.00
2013-1-18,74,46,26,47,30,22,87,58,26,30.27,30.08,9,2,9,0.00
2013-1-19,74,53,36,49,40,28,87,65,37,30.09,29.92,13,3,13,0.00
2013-1-20,87,56,33,56,39,29,90,59,23,30.02,29.86,9,1,9,0.00
2013-1-21,90,55,36,59,40,32,90,62,30,30.03,29.91,8,1,8,0.00
2013-1-22,78,52,34,53,41,30,86,68,40,30.09,29.97,13,2,13,0.00
2013-1-23,81,59,37,59,48,33,91,71,43,30.11,29.98,13,2,13,0.00
2013-1-24,90,67,52,66,56,48,91,71,38,30.02,29.89,12,3,12,0.00
2013-1-25,62,60,59,58,56,55,89,87,81,29.91,29.86,12,4,12,0.00
2013-1-26,52,50,48,49,46,44,91,84,75,29.96,29.89,3,0,4,0.00
2013-1-27,59,56,52,56,53,49,92,92,91,29.89,29.87,9,2,9,0.00
2013-2-10,71,59,49,64,47,38,93,68,34,29.82,29.53,13,1,13,0.20
2013-2-11,62,52,46,51,44,39,88,76,47,29.89,29.77,9,2,9,0.06
2013-2-12,78,57,45,61,45,30,93,69,29,29.86,29.61,16,2,16,0.02
2013-2-13,79,51,31,47,33,25,84,56,25,29.94,29.81,8,1,8,0.00
2013-2-14,83,54,28,52,33,24,87,52,18,29.89,29.77,11,2,11,0.00
2013-2-15,68,48,32,45,32,21,80,56,35,30.17,29.85,12,2,12,0.00
2013-2-16,80,48,26,39,27,18,78,50,19,30.21,29.98,12,2,12,0.00
2013-2-17,77,56,31,49,35,23,77,50,23,29.98,29.75,17,5,18,0.00
2013-2-18,87,66,52,60,46,27,79,52,19,29.89,29.63,16,5,16,0.00
2013-2-19,70,56,33,38,29,23,71,38,22,30.06,29.88,12,3,12,0.00
2013-2-20,60,54,50,58,43,32,95,70,40,29.92,29.45,11,4,11,0.04
2013-2-21,84,66,40,64,44,24,95,55,17,29.67,29.38,19,5,19,0.03
2013-2-22,64,46,36,36,32,28,77,58,32,29.86,29.63,9,2,9,0.00
2013-2-23,84,54,31,43,32,24,78,48,21,29.84,29.68,14,1,14,0.00
2013-2-24,76,56,30,56,41,24,84,61,35,29.72,29.39,15,4,15,0.00
2013-2-25,72,56,43,56,37,24,91,53,19,29.62,29.35,34,7,34,0.00
2013-2-26,80,54,33,38,30,24,71,45,19,29.73,29.62,12,2,12,0.00
2013-2-27,77,52,33,39,27,18,72,42,19,30.02,29.64,11,2,11,0.00
2013-2-28,72,48,30,36,25,18,65,44,21,30.11,29.97,11,2,11,0.00
2013-3-1,84,53,26,43,24,18,77,40,13,30.07,29.91,12,2,12,0.00
2013-3-2,74,50,31,35,26,21,70,44,19,30.20,30.04,13,2,13,0.00
2013-3-3,80,57,29,41,30,20,73,41,18,30.04,29.70,16,4,16,0.00
2013-3-4,93,70,54,52,44,37,75,44,18,29.70,29.49,15,6,15,0.00
2013-3-5,75,56,31,50,25,10,60,36,13,30.15,29.55,15,4,15,0.00
2013-3-6,72,47,26,26,18,11,62,36,12,30.23,29.99,9,2,9,0.00
2013-3-7,74,54,31,52,38,19,72,56,37,30.02,29.88,15,4,15,0.00
2013-3-8,63,59,56,61,55,50,93,86,71,29.95,29.80,12,4,12,0.05
2013-3-9,71,65,60,64,61,57,93,87,77,29.80,29.44,17,6,17,0.34
2013-3-10,78,58,36,60,43,28,92,62,29,29.92,29.54,9,2,9,0.66
2013-3-11,77,52,30,40,29,23,85,51,17,29.96,29.79,8,1,8,0.00
2013-3-12,84,58,30,42,33,24,83,46,18,30.08,29.84,13,2,13,0.00
2013-3-13,81,59,36,46,35,28,73,44,22,30.23,30.08,12,2,12,0.00
2013-3-14,82,63,44,53,43,36,80,51,29,30.17,30.01,13,3,13,0.00
2013-3-15,85,68,52,56,47,39,87,52,24,30.02,29.79,15,5,15,0.00
2013-3-16,87,71,56,59,54,47,84,58,32,29.79,29.55,17,6,17,0.00
2013-3-17,90,72,64,63,58,53,80,63,39,29.62,29.47,14,4,14,0.00
2013-3-20,66,53,46,40,38,35,77,60,33,29.89,29.82,6,1,7,0.00
2013-3-21,77,63,46,59,51,39,82,66,49,29.82,29.41,18,4,18,0.00
2013-3-22,96,71,52,69,58,44,86,65,35,29.60,29.43,12,4,12,0.00
2013-3-23,82,61,49,61,51,43,87,72,40,29.61,29.40,8,2,8,0.00
2013-3-24,70,52,32,53,31,22,88,49,24,29.97,29.52,12,3,12,0.00
2013-3-25,66,45,28,30,21,16,72,43,18,30.18,29.96,11,2,11,0.00
2013-3-26,76,49,24,40,22,18,78,42,16,30.25,30.06,9,2,9,0.00
2013-3-27,73,55,29,45,36,20,75,51,31,30.09,29.93,16,4,16,0.00
2013-3-28,74,62,53,58,53,45,83,72,56,29.99,29.90,13,4,13,0.00
2013-3-29,82,68,57,60,56,54,90,67,42,29.98,29.85,14,4,14,0.00
2013-3-30,83,70,63,63,59,55,83,68,45,29.89,29.69,17,4,17,0.00
2013-3-31,76,68,60,66,61,55,87,79,67,29.79,29.68,8,2,8,0.02
2013-4-1,93,71,52,70,59,48,91,68,42,29.86,29.71,13,3,13,0.00
2013-4-2,79,65,51,67,60,48,93,85,63,29.81,29.63,23,2,23,0.58
2013-4-3,53,50,47,51,48,45,94,94,91,29.93,29.66,9,2,9,0.36
2013-4-4,62,49,36,50,43,33,94,81,59,30.00,29.89,10,2,10,0.00
2013-4-5,78,56,32,60,42,29,93,64,35,30.04,29.84,8,2,8,0.00
2013-4-6,82,66,49,57,52,44,87,63,41,29.85,29.65,19,5,19,0.00
2013-4-7,80,68,60,64,59,54,84,74,55,29.72,29.55,14,5,14,0.00
2013-4-8,73,68,65,66,62,59,90,82,74,29.63,29.48,15,6,15,0.00
2013-4-9,83,73,68,68,65,63,86,78,58,29.52,29.40,17,6,17,0.00
2013-4-10,72,55,43,67,50,38,92,83,69,29.75,29.45,19,4,19,0.32
2013-4-11,73,55,41,47,40,36,84,60,33,29.76,29.60,8,2,8,0.02
2013-4-12,85,62,37,60,42,34,91,55,25,29.79,29.65,10,2,10,0.00
2013-4-13,84,65,52,59,50,44,83,62,30,29.76,29.59,11,2,11,0.00
2013-4-14,90,72,56,66,59,50,88,64,40,29.62,29.40,18,4,18,0.00
2013-4-15,90,77,68,67,65,63,88,68,46,29.62,29.49,15,5,15,0.00
2013-4-16,89,77,67,68,65,62,84,68,48,29.71,29.60,14,6,14,0.00
2013-4-17,85,75,71,69,68,66,91,78,56,29.70,29.48,18,6,18,0.00
2013-4-18,72,61,48,69,52,37,91,75,52,29.91,29.45,15,4,15,0.38
2013-4-19,77,56,37,49,34,27,81,49,19,30.09,29.91,11,2,11,0.00
2013-4-20,75,54,30,49,32,25,89,50,21,30.01,29.79,14,3,14,0.00
2013-4-21,79,64,46,54,49,40,84,60,42,29.94,29.81,11,3,11,0.00
2013-4-22,87,71,52,60,56,48,88,61,38,29.89,29.67,13,4,13,0.00
2013-4-23,80,64,48,66,54,39,86,72,51,29.94,29.64,12,3,13,0.00
2013-4-24,69,54,43,40,37,34,76,54,33,30.07,29.94,12,3,12,0.00
2013-4-25,69,60,51,46,43,38,64,53,41,30.12,29.96,8,2,8,0.00
2013-4-26,77,67,58,69,60,43,92,80,49,29.97,29.81,13,3,13,0.02
2013-4-27,96,75,67,75,65,60,91,73,44,29.89,29.75,8,2,8,0.04
2013-4-28,95,76,60,72,60,53,91,62,33,29.85,29.66,10,2,10,0.00
2013-4-29,98,74,62,74,62,58,90,70,38,29.74,29.59,18,3,18,0.26
2013-4-30,92,73,59,71,62,55,94,71,43,29.66,29.53,10,2,10,0.01
2013-5-1,90,76,61,70,64,56,90,68,46,29.78,29.59,11,3,11,0.00
2013-5-2,70,54,45,62,46,34,83,72,65,30.14,29.72,13,3,13,0.00
2013-5-3,76,56,38,40,32,27,74,46,19,30.13,29.87,14,2,14,0.00
2013-5-4,91,62,33,49,35,27,83,45,15,29.87,29.68,15,2,16,0.00
2013-5-5,84,62,39,49,40,30,75,48,29,29.96,29.80,11,2,11,0.00
2013-5-6,85,63,43,56,45,37,84,56,28,29.95,29.80,8,1,8,0.00
2013-5-7,89,70,43,62,48,39,87,51,26,29.89,29.72,11,2,11,0.00
2013-5-8,84,72,60,64,59,52,85,65,46,29.82,29.69,16,4,16,0.00
2013-5-9,78,69,64,68,63,57,90,82,70,29.81,29.60,11,3,11,0.23
2013-5-10,90,69,57,70,61,54,93,78,42,29.85,29.62,17,2,17,1.73
2013-5-11,86,69,55,72,56,48,93,67,41,29.96,29.82,10,2,10,0.01
2013-5-12,85,66,49,58,50,41,89,60,30,30.07,29.92,8,2,8,0.00
2013-5-13,100,70,44,63,48,40,89,52,21,30.06,29.95,10,2,10,0.00
2013-5-14,90,75,58,65,58,49,81,59,33,30.02,29.80,16,5,16,0.00
2013-5-15,85,73,64,72,66,60,94,80,60,29.90,29.62,16,6,16,0.28
2013-5-16,73,69,64,67,65,62,92,86,83,29.70,29.61,13,4,13,0.18
2013-5-18,96,83,69,72,67,62,89,60,41,29.73,29.61,16,6,16,0.00
2013-5-19,93,80,71,71,67,64,84,66,49,29.67,29.54,16,6,16,0.00
2013-5-20,93,81,71,72,68,65,86,67,47,29.67,29.51,16,6,16,0.00
2013-5-21,92,77,65,75,68,57,86,75,51,29.71,29.53,15,5,15,0.05
2013-5-22,94,76,52,70,58,49,92,58,29,29.75,29.63,8,2,8,0.02
2013-5-23,87,79,70,72,69,62,88,73,58,29.86,29.70,12,3,12,0.00
2013-5-24,81,72,66,72,67,63,94,86,70,29.93,29.82,14,2,14,1.76
2013-5-25,80,72,66,73,68,64,95,86,66,29.94,29.84,13,3,13,1.17
2013-5-26,85,76,70,73,69,66,94,79,63,29.91,29.78,12,4,12,0.36
2013-5-27,88,77,70,72,68,65,89,75,56,29.82,29.65,15,5,15,0.00
2013-5-28,90,79,71,71,68,66,85,70,51,29.72,29.58,17,6,17,0.00
2013-5-29,84,76,72,74,69,67,89,79,64,29.70,29.53,17,6,17,0.15
2013-5-30,89,80,73,74,70,68,86,73,55,29.66,29.57,15,6,15,0.00
2013-5-31,91,82,74,74,71,69,86,70,56,29.69,29.57,16,5,16,0.00
2013-6-1,97,84,74,75,71,69,85,67,46,29.73,29.60,14,4,14,0.00
2013-6-2,90,76,62,71,63,56,91,67,37,29.89,29.73,11,2,11,0.08
2013-6-3,96,77,56,72,60,54,92,59,31,29.81,29.66,9,2,9,0.00
2013-6-4,94,81,64,70,64,57,88,59,39,29.73,29.62,11,3,11,0.00
2013-6-5,96,82,69,71,65,61,87,59,39,29.74,29.58,16,4,16,0.00
2013-6-6,104,82,68,75,65,61,87,59,30,29.77,29.62,10,2,10,0.00
2013-6-7,95,76,61,65,58,52,86,58,30,29.84,29.71,10,1,10,0.00
2013-6-8,92,77,54,68,60,49,87,59,34,29.76,29.61,11,3,11,0.00
2013-6-9,95,79,67,82,68,62,92,72,51,29.80,29.66,11,2,11,0.19
2013-6-10,108,84,65,78,66,58,92,59,31,29.82,29.73,10,2,10,0.00
2013-6-11,97,83,72,74,68,63,89,63,42,29.86,29.77,13,3,13,0.00
2013-6-12,98,82,71,75,70,64,90,68,42,29.88,29.78,13,3,13,0.05
2013-6-13,101,83,71,77,69,63,90,66,40,29.90,29.76,12,2,12,0.00
2013-6-14,95,81,69,76,70,64,87,71,45,29.83,29.73,8,1,8,0.00
2013-6-15,98,82,73,77,71,68,89,71,48,29.83,29.73,12,2,12,0.01
2013-6-16,101,86,72,76,69,64,88,59,38,29.85,29.73,11,3,11,0.00
2013-6-17,99,86,74,76,69,63,84,59,39,29.84,29.68,11,3,11,0.03
2013-6-18,96,81,68,80,70,64,92,72,45,29.88,29.71,8,2,8,0.50
2013-6-19,100,85,70,78,69,65,90,61,39,29.80,29.73,11,2,11,0.00
2013-6-20,97,85,72,72,67,63,86,58,38,29.89,29.78,13,4,13,0.00
2013-6-21,98,86,73,75,67,60,87,57,34,29.90,29.79,16,4,16,0.02
2013-6-22,97,86,74,73,67,61,84,57,36,29.88,29.72,14,5,14,0.00
2013-6-23,95,85,73,72,66,58,86,57,35,29.82,29.72,12,4,12,0.00
2013-6-24,96,85,74,72,68,64,85,60,38,29.86,29.72,16,5,16,0.00
2013-6-25,99,87,76,72,67,62,83,56,33,29.83,29.69,15,6,15,0.00
2013-6-26,100,86,75,74,68,64,81,57,35,29.81,29.71,13,5,13,0.00
2013-6-27,105,88,73,73,65,54,83,51,23,29.87,29.73,10,3,10,0.00
2013-6-28,113,91,71,74,65,58,81,48,22,29.83,29.65,10,2,10,0.00
2013-6-29,112,91,69,75,62,54,76,43,18,29.71,29.60,10,2,10,0.00
2013-6-30,106,85,71,73,64,57,81,51,29,29.80,29.67,12,2,12,0.02
2013-7-1,100,82,64,61,54,48,62,41,23,29.85,29.75,9,2,9,0.00
2013-7-2,103,79,60,63,50,42,72,42,20,29.92,29.80,10,2,10,0.00
2013-7-3,106,79,55,64,48,43,73,40,17,29.87,29.74,9,2,9,0.00
2013-7-4,99,80,62,68,56,46,80,47,25,29.83,29.72,10,2,10,0.00
2013-7-5,104,86,63,72,60,52,80,45,23,29.82,29.67,10,2,10,0.00
2013-7-6,101,86,66,72,63,57,80,49,29,29.78,29.66,13,3,13,0.00
2013-7-7,99,85,68,75,67,62,82,57,33,29.82,29.71,11,2,12,0.00
2013-7-8,92,81,75,75,70,67,83,71,51,29.94,29.82,13,3,13,0.06
2013-7-9,100,87,72,75,69,64,89,59,34,29.98,29.83,12,4,12,0.00
2013-7-10,108,89,72,74,68,62,86,54,30,29.93,29.76,11,3,11,0.00
2013-7-11,108,89,74,75,66,58,81,50,27,29.85,29.71,11,2,11,0.00
2013-7-12,108,91,73,73,64,57,75,44,24,29.81,29.71,11,2,11,0.00
2013-7-13,116,92,70,73,62,56,76,42,21,29.83,29.68,10,2,10,0.00
2013-7-14,113,81,68,70,63,58,90,58,22,29.77,29.70,16,3,16,0.01
2013-7-15,73,69,67,71,67,64,95,93,90,29.86,29.74,8,2,8,2.59
2013-7-16,90,76,68,77,70,67,96,82,53,29.97,29.84,12,2,12,0.11
2013-7-17,88,74,69,79,70,66,95,87,62,30.01,29.92,14,1,14,0.65
2013-7-18,95,80,68,79,69,65,95,72,45,30.00,29.82,8,1,8,0.00
2013-7-19,105,83,65,82,67,62,92,63,31,29.90,29.74,9,2,9,0.00
2013-7-20,102,84,71,76,69,65,87,64,39,29.84,29.68,10,2,10,0.00
2013-7-21,102,83,72,77,72,67,90,72,40,29.79,29.71,14,2,14,0.27
2013-7-22,96,85,74,77,72,68,89,66,46,29.82,29.72,15,4,15,0.00
2013-7-23,99,86,75,75,69,63,83,60,39,29.84,29.70,16,4,16,0.00
2013-7-24,101,85,74,76,71,68,86,65,42,29.84,29.71,12,2,12,0.00
2013-7-25,110,87,71,79,69,65,88,60,31,29.86,29.78,8,2,8,0.00
2013-7-26,102,86,73,75,70,66,88,60,38,29.86,29.70,13,3,13,0.42
2013-7-27,92,79,68,75,70,63,92,76,54,29.83,29.73,10,2,10,0.00
2013-7-28,97,81,67,78,69,63,92,69,47,29.79,29.67,9,2,9,0.00
2013-7-29,98,86,76,74,69,60,85,59,33,29.85,29.76,14,5,14,0.00
2013-7-30,99,86,74,74,69,64,85,59,40,29.92,29.80,14,4,14,0.00
2013-7-31,106,87,73,73,67,62,86,55,28,29.92,29.77,12,3,12,0.00
2013-8-1,111,89,71,76,67,64,81,53,27,29.86,29.73,8,2,8,0.00
2013-8-2,104,88,72,71,65,60,73,49,27,29.82,29.72,13,2,13,0.00
2013-8-3,102,88,75,74,67,62,82,54,34,29.86,29.76,12,3,12,0.00
2013-8-4,102,88,74,78,70,66,86,57,38,29.92,29.76,11,3,11,0.00
2013-8-5,106,89,73,74,67,62,83,51,31,29.87,29.71,13,4,13,0.00
2013-8-6,104,89,73,75,68,61,82,54,30,29.79,29.65,13,4,13,0.00
2013-8-7,106,90,74,76,68,59,83,53,29,29.76,29.62,13,4,13,0.00
2013-8-8,106,89,74,74,66,56,84,51,26,29.74,29.62,11,3,11,0.00
2013-8-9,104,87,72,75,64,53,89,53,23,29.81,29.70,10,2,10,0.00
2013-8-10,119,89,70,78,67,57,86,53,24,29.89,29.77,17,2,17,0.04
2013-8-11,114,86,71,82,70,65,92,64,30,29.92,29.80,13,2,13,0.04
2013-8-12,106,87,70,77,68,63,89,58,33,29.91,29.77,12,2,12,0.00
2013-8-13,110,89,73,75,66,60,82,50,25,29.88,29.72,13,2,13,0.00
2013-8-14,116,86,73,74,68,61,89,59,24,29.86,29.74,12,2,12,0.05
2013-8-15,95,79,70,77,70,67,94,77,48,29.86,29.76,6,1,6,0.13
2013-8-16,97,78,67,80,68,60,94,73,39,29.89,29.76,10,1,10,0.03
2013-8-17,100,79,63,70,61,55,90,58,33,29.89,29.77,10,2,10,0.00
2013-8-18,107,80,59,71,58,53,84,52,23,29.90,29.81,9,2,9,0.00
2013-8-19,105,81,61,73,59,54,80,51,28,29.89,29.75,9,2,9,0.00
2013-8-20,109,84,63,73,61,54,82,51,26,29.86,29.76,12,2,12,0.00
2013-8-21,101,84,71,75,66,62,82,59,34,29.92,29.80,10,2,10,0.00
2013-8-22,106,87,69,75,67,63,83,56,32,29.92,29.76,8,2,8,0.00
2013-8-23,111,87,69,79,66,61,83,53,31,29.86,29.73,10,2,10,0.00
2013-8-24,114,88,73,77,66,61,77,51,25,29.89,29.77,10,2,10,0.00
2013-8-25,108,86,69,78,66,62,82,55,33,29.92,29.85,12,2,12,0.00
2013-8-26,92,80,73,72,68,64,84,68,45,29.97,29.85,12,3,12,0.00
2013-8-27,86,76,69,76,68,61,91,76,50,29.95,29.85,7,2,8,0.06
2013-8-28,103,83,66,78,66,62,91,61,31,29.94,29.83,10,2,10,0.00
2013-8-29,116,87,67,75,64,59,84,51,24,29.92,29.79,9,1,9,0.00
2013-8-30,118,90,71,71,62,58,69,44,19,29.86,29.71,9,2,9,0.00
2013-8-31,115,90,70,72,64,59,77,47,22,29.78,29.65,9,2,9,0.00
2013-9-1,114,90,72,74,66,62,77,48,26,29.76,29.64,9,2,9,0.00
2013-9-2,113,86,72,79,69,63,89,61,27,29.81,29.67,12,1,12,0.15
2013-9-3,114,85,67,81,68,63,92,63,24,29.84,29.72,9,1,9,0.03
2013-9-4,114,87,72,86,69,63,91,59,26,29.90,29.76,9,2,9,0.06
2013-9-5,108,86,68,78,66,62,84,55,30,29.94,29.82,11,2,14,0.00
2013-9-6,111,87,67,79,66,61,86,55,29,29.93,29.78,11,2,11,0.00
2013-9-7,106,84,67,79,66,62,85,59,32,29.87,29.73,16,2,16,0.00
2013-9-8,100,81,67,78,67,62,88,66,36,29.83,29.71,12,2,12,0.00
2013-9-9,98,79,66,75,66,62,86,68,38,29.83,29.74,12,2,14,0.00
2013-9-10,94,79,68,73,67,62,89,69,43,29.90,29.80,17,2,17,0.00
2013-9-11,98,82,69,75,65,60,87,61,36,29.94,29.81,10,2,10,0.00
2013-9-12,105,84,66,76,63,59,84,55,31,29.90,29.75,10,2,10,0.00
2013-9-13,115,85,65,76,61,56,82,49,22,29.81,29.65,10,2,10,0.00
2013-9-14,108,86,68,71,63,57,78,50,22,29.78,29.67,10,2,10,0.01
2013-9-15,95,81,68,73,66,62,84,62,40,29.86,29.75,10,2,10,0.00
2013-9-16,96,79,68,73,67,61,89,68,42,29.90,29.78,9,2,9,0.16
2013-9-17,97,80,69,78,69,65,93,72,43,29.90,29.76,9,2,9,0.00
2013-9-18,99,83,67,77,67,62,89,62,34,29.85,29.70,10,2,10,0.00
2013-9-19,94,79,72,76,70,66,90,74,47,29.79,29.65,8,1,8,0.61
2013-9-20,74,71,67,71,69,65,94,93,90,29.71,29.63,14,1,14,2.74
2013-9-21,92,73,55,73,60,48,95,68,33,29.77,29.67,10,2,10,0.00
2013-9-22,91,69,50,67,51,46,90,59,29,29.74,29.61,9,1,9,0.00
2013-9-23,101,73,50,67,52,46,90,56,22,29.67,29.57,6,1,6,0.00
2013-9-24,113,79,55,71,58,51,87,55,22,29.75,29.66,8,1,8,0.00
2013-9-25,111,81,58,72,60,54,87,55,23,29.73,29.60,9,1,9,0.00
2013-9-26,102,79,57,71,59,50,84,54,22,29.73,29.64,12,2,12,0.00
2013-9-27,92,79,71,76,70,65,87,77,55,29.75,29.65,14,3,14,0.00
2013-9-28,98,78,69,77,72,66,92,82,48,29.84,29.70,11,3,11,0.68
2013-9-29,78,66,59,68,62,56,94,87,67,29.89,29.75,6,1,6,0.15
2013-9-30,106,74,53,76,58,50,93,63,26,29.78,29.63,6,1,6,0.01
2013-10-1,96,72,55,73,62,51,90,72,41,29.75,29.66,9,2,9,0.00
2013-10-2,93,78,71,75,69,64,87,73,50,29.79,29.68,10,2,10,0.00
2013-10-3,99,81,71,76,69,66,89,68,41,29.76,29.66,12,3,12,0.00
2013-10-4,97,80,70,73,68,65,88,68,41,29.74,29.66,15,4,15,0.00
2013-10-5,106,79,68,80,69,64,89,74,33,29.80,29.70,10,2,10,0.00